Location: Peebles
(55.6412°N, 3.1714°W)
Time: 23:14:59
(UTC+01:00)

USA 238 DEB - Pass Details

Date: 20 January 2022
Orbit: 969 x 1243 km, 63.4° (Epoch: 04 May)

Event Time Altitude Azimuth Distance (km) Brightness Sun altitude
Rises 18:12:27 0° 225° (SW) 3,701 7.6 -14.8°
Reaches altitude 10° 18:14:58 10° 224° (SW) 2,779 6.8 -15.2°
Maximum altitude 18:21:30 83° 139° (SE) 1,064 3.6 -16.1°
Enters shadow 18:26:28 21° 53° (NE) 2,243 4.9 -16.8°
